Zurück zum Katalog

STARLINK-3338

AktivKommunikationVLEO
NORAD 50812·PAYLOAD·🇺🇸 United States

Gestartet Jan 6, 2022 von Cape Canaveral Space Force Station

Loading…

Nächste Überflüge (nächste 24 Stunden)

TLE

AktuellSource: CelesTrak SupGP

Epoche: Sep 14, 2026, 14:12 UTC

1 50812C 22001K   26257.59215278 -.00037774  00000+0 -11163-2 0  2572
2 50812  53.1600  23.0997 0001183  89.4985   2.2983 15.34401277    18

Verfolge STARLINK-3338 in Echtzeit mit AllMySat

Download on the App Store